sat.trackr.live / text

‹ back to catalog

ANSER FOLLOWER 2

NORAD 58018 · 2023-155C

PAYLOAD ACTIVE UNKNOWN

§ Identity

Operator
Country
SPN
Launch date
2023-10-09
Launch site
FRGUI
Launch vehicle
Mass (kg)
RCS (m²)

External: N2YO · Heavens-Above · Gunter

§ Orbital elements

Epoch: 2026-05-25T04:46:52.347072Z

Period
93.24 min
Inclination
97.5538°
Eccentricity
0.0002332
Mean motion
15.44329127 rev/d
Perigee alt
431.8 km
Apogee alt
434.9 km
Semi-major
6,811.5 km
B*
3.6499e-4
RAAN
233.3648°
Arg perigee
146.1455°
Mean anomaly
213.9942°
Rev number
14,540

§ Raw data

ANSER FOLLOWER 21 58018U 23155C   26145.19921698  .00016745  00000+0  36499-3 0  99972 58018  97.5538 233.3648 0002332 146.1455 213.9942 15.44329127145408

JSON: /api/v1/satellites/58018 · /tle

For live sub-satellite position, see the globe view (requires WebGL).

§ Visibility from observer

Set your observer location to see the next 7 days of passes ≥ 10°. The values pass through the URL so the page stays shareable.

No JS? Fill the form by hand. The geolocation button needs JavaScript.